Device Time, :Charged Air Cooler Outlet Temp(°F),:DPF: Inlet Pressure(mbar),:EGR: Actual(%),:EGR: Commanded(%),:EGR: Temp(°F),:EGT: DOC Inlet(°F),:EGT: DPF Outlet(°F),:Fuel Rail Pressure: Actual(psi),:Fuel Rail Pressure: Commanded(psi),:Main Injection Timing(Deg),:Turbo: Boost(psi),:Turbo: Compressor Inlet Temp(°F),Ambient air temp(°F),Charge air cooler temperature (CACT)(°F),Engine RPM(rpm),Fuel Rate (direct from ECU)(L/m),Intake Air Temperature(°F),Mass Air Flow Rate(cfm)
08-Oct-2021 05:51:19.006,89.59999847,-,-,-,194,608.35998535,628.70001221,7821.29980469,8099.70019531,-,1.12828124,-,73.40000153,-,1322.5,8.05000019,113,179.59892273
08-Oct-2021 05:51:19.981,89.59999847,5529.60009766,-,-,194,608.35998535,628.70001221,7821.29980469,8099.70019531,-,1.323125,75.19999695,73.40000153,89.59999847,1332.25,10.10000038,114.80000305,485.61499023
08-Oct-2021 05:51:20.979,89.59999847,5529.60009766,0,0,195.80000305,609.97998047,628.15997314,13290.70019531,13479.20019531,0.5625,3.38937497,75.19999695,73.40000153,89.59999847,1350.25,10.10000038,114.80000305,675.72192383
08-Oct-2021 05:51:21.979,89.59999847,998.40002441,0,0,195.80000305,622.03997803,627.44000244,17579.80078125,18473,4.8125,8.99453163,75.19999695,73.40000153,89.59999847,1350.25,16.80000114,114.80000305,675.72192383
08-Oct-2021 05:51:22.979,87.80000305,2227.19995117,0,0,195.80000305,622.03997803,627.44000244,17579.80078125,18473,4.8125,8.99453163,75.19999695,73.40000153,87.80000305,2345,44.29999924,113,1757.80749512
08-Oct-2021 05:51:23.980,87.80000305,2227.19995117,0,0,197.6000061,651.20001221,626.35998535,25183.59960938,26063.75,13.625,29.59812546,75.19999695,73.40000153,87.80000305,2634.25,44.29999924,109.40000153,3152.08544922
08-Oct-2021 05:51:24.979,87.80000305,4812.79980469,0,0,194,691.34002686,626,24897.94921875,25999.94921875,12,27.00625038,75.19999695,73.40000153,87.80000305,2634.25,80.30000305,109.40000153,3152.08544922
08-Oct-2021 05:51:25.979,87.80000305,5708.79980469,0,0,194,691.34002686,626,24897.94921875,25999.94921875,12,27.00625038,75.19999695,73.40000153,87.80000305,2594.5,78.30000305,107.59999847,3012.19238281
08-Oct-2021 05:51:26.979,87.80000305,5708.79980469,0,0,194,735.61999512,626.53997803,23611.80078125,26095.65039062,15.875,27.12406158,75.19999695,73.40000153,89.59999847,2875.5,80.65000153,105.80000305,3162.59350586
08-Oct-2021 05:51:27.979,89.59999847,1638.40002441,0,0,192.19999695,791.59997559,628.70001221,22714.25,25865.09960938,10.75,25.16656303,75.19999695,73.40000153,89.59999847,2875.5,80.65000153,105.80000305,2711.39038086
08-Oct-2021 05:51:28.979,91.40000153,5196.79980469,0,0,192.19999695,846.67999268,632.47998047,24592,25863.65039062,10.75,25.16656303,75.19999695,73.40000153,91.40000153,2403.5,75.25,104,2711.39038086
08-Oct-2021 05:51:29.979,91.40000153,5196.79980469,0,0,192.19999695,846.67999268,632.47998047,24592,25863.65039062,10.875,25.01703072,75.19999695,73.40000153,93.19999695,2496.75,71.5,104,2790.72192383
08-Oct-2021 05:51:30.978,93.19999695,742.40002441,0,0,194,890.59997559,638.23999023,24686.25,26050.69921875,12.25,27.17843819,75.19999695,73.40000153,95,2591.25,74.15000153,104,2996.47045898
08-Oct-2021 05:51:31.978,95,3072,0,0,195.80000305,918.85998535,644.7199707,24757.30078125,26100,14.25,27.46843719,75.19999695,73.40000153,95,2591.25,74.15000153,104,2996.47045898
08-Oct-2021 05:51:32.978,98.59999847,5120,0,0,197.6000061,918.85998535,644.7199707,24757.30078125,26100,14.25,27.46843719,75.19999695,73.40000153,98.59999847,2723.25,78.59999847,105.80000305,3028.87695312
08-Oct-2021 05:51:33.978,98.59999847,5120,0,0,197.6000061,953.59997559,656.7800293,25114,26081.15039062,15.6875,26.41718674,75.19999695,73.40000153,98.59999847,2835.25,79.30000305,105.80000305,3028.87695312
08-Oct-2021 05:51:34.979,102.19999695,332.79998779,0,0,197.6000061,988.15997314,672.26000977,10793.79980469,10718.40039062,3.125,13.12703133,75.19999695,73.40000153,102.19999695,2835.25,79.30000305,105.80000305,3028.87695312
08-Oct-2021 05:51:35.978,105.80000305,5299.20019531,0,0,194,975.91998291,683.7800293,10793.79980469,10718.40039062,3.125,13.12703133,75.19999695,73.40000153,105.80000305,2114,76.45000458,107.59999847,1309.73254395
08-Oct-2021 05:51:36.978,105.80000305,5299.20019531,0,0,194,975.91998291,683.7800293,22448.90039062,23911.94921875,5,2.7640624,75.19999695,73.40000153,105.80000305,2028.75,0,107.59999847,457.45986938
08-Oct-2021 05:51:37.978,105.80000305,1715.19995117,0,0,201.19999695,926.23999023,692.96002197,21625.30078125,9079.90039062,4.8125,1.57687497,75.19999695,73.40000153,105.80000305,2028.75,0,107.59999847,457.45986938
08-Oct-2021 05:51:38.978,105.80000305,4070.39990234,1.96078432,2.74509811,197.6000061,893.65997314,697.64001465,13212.40039062,8913.15039062,4.8125,1.57687497,75.19999695,71.59999847,105.80000305,1952,0,109.40000153,618.28875732
08-Oct-2021 05:51:39.978,105.80000305,4172.79980469,4.31372547,4.70588255,197.6000061,893.65997314,697.64001465,13212.40039062,8913.15039062,4.25,4.96171856,75.19999695,71.59999847,105.80000305,1910.5,1.45000005,111.19999695,772.86096191
08-Oct-2021 05:51:40.978,105.80000305,4172.79980469,4.31372547,4.70588255,215.6000061,860.35998535,701.23999023,17270.94921875,20111.5,3.875,4.51765633,75.19999695,71.59999847,104,1865.25,1.55000007,111.19999695,831.33691406
08-Oct-2021 05:51:41.978,104,3840,0,0,237.19999695,817.52001953,705.02001953,20613.19921875,22970.90039062,3.1875,2.9679687,75.19999695,71.59999847,104,1865.25,1.55000007,111.19999695,831.33691406
08-Oct-2021 05:51:42.978,104,3404.80004883,0,0,228.19999695,783.5,708.97998047,20613.19921875,22970.90039062,3.1875,2.9679687,75.19999695,71.59999847,104,1803.25,0,111.19999695,718.55615234
08-Oct-2021 05:51:43.978,102.19999695,3404.80004883,0,0,228.19999695,783.5,708.97998047,22905.65039062,25602.65039062,2.625,2.3834374,75.19999695,71.59999847,102.19999695,1743.25,0,111.19999695,648.52941895
08-Oct-2021 05:51:44.979,102.19999695,3840,6.27450991,7.84313726,221,755.96002197,713.11999512,7176.04980469,8101.14990234,3.1875,4.90281248,75.19999695,71.59999847,102.19999695,1733.75,0,111.19999695,574.41174316
08-Oct-2021 05:51:45.978,102.19999695,1280,12.94117641,14.11764717,228.19999695,736.15997314,717.26000977,6830.95019531,7970.64990234,2.9375,4.90281248,75.19999695,71.59999847,102.19999695,1733.75,6.9000001,113,574.41174316
08-Oct-2021 05:51:46.979,100.40000153,947.20001221,30.98039246,30.19607925,228.19999695,736.15997314,717.26000977,6830.95019531,7970.64990234,2.9375,3.01328135,75.19999695,71.59999847,100.40000153,1715.75,8.44999981,114.80000305,558.77008057
08-Oct-2021 05:51:47.978,100.40000153,947.20001221,30.98039246,30.19607925,222.80000305,720.32000732,721.58001709,7048.45019531,7957.60009766,3.875,0.63890624,75.19999695,71.59999847,100.40000153,1697.25,8.44999981,114.80000305,536.79144287
08-Oct-2021 05:51:48.978,100.40000153,1331.19995117,19.6078434,20,219.19999695,713.84002686,727.52001953,8179.45019531,8976.95019531,3.9375,1.26874995,75.19999695,71.59999847,100.40000153,1697.25,10.60000038,114.80000305,536.79144287
08-Oct-2021 05:51:49.979,98.59999847,2432,10.98039246,10.5882349,217.3999939,713.84002686,727.52001953,8179.45019531,8976.95019531,3.9375,1.26874995,75.19999695,71.59999847,98.59999847,1694.75,13.55000019,116.59999847,612.03210449
08-Oct-2021 05:51:50.978,98.59999847,2432,10.98039246,10.5882349,217.3999939,719.41998291,733.09997559,9438.04980469,10006.45019531,3.75,1.68562496,75.19999695,71.59999847,98.59999847,1681.5,15.5,114.80000305,664.25128174
08-Oct-2021 05:51:51.978,98.59999847,2380.80004883,12.94117641,12.94117641,215.6000061,727.88000488,738.14001465,9536.65039062,9775.90039062,3.5,2.56015635,75.19999695,71.59999847,98.59999847,1677.5,16,114.80000305,636.01605225
08-Oct-2021 05:51:52.979,96.80000305,2534.39990234,12.94117641,12.94117641,215.6000061,733.09997559,741.02001953,9652.65039062,9665.70019531,3.5625,3.30781245,75.19999695,71.59999847,96.80000305,1675.25,16.05000114,114.80000305,641.22998047
08-Oct-2021 05:51:53.978,96.80000305,2534.39990234,21.96078491,21.56862831,213.80000305,737.7800293,745.34002686,8642,8601.40039062,3.625,3.43921876,75.19999695,71.59999847,96.80000305,1668.5,16.05000114,114.80000305,620.37426758
08-Oct-2021 05:51:54.978,96.80000305,2150.39990234,70.98039246,69.41176605,213.80000305,738.32000732,750.02001953,7782.14990234,7837.25,3.25,1.359375,75.19999695,71.59999847,96.80000305,1668.5,15.30000019,114.80000305,620.37426758
08-Oct-2021 05:51:55.978,95,512,68.62744904,69.41176605,213.80000305,738.32000732,750.02001953,7782.14990234,7837.25,3.25,1.359375,75.19999695,71.59999847,95,1655.75,11.5,114.80000305,492.91442871
08-Oct-2021 05:51:56.978,95,512,68.62744904,69.41176605,212,735.97998047,755.41998291,7772,7802.45019531,3.125,1.26421881,75.19999695,71.59999847,95,1635.75,11.40000057,116.59999847,504.46524048
08-Oct-2021 05:51:57.977,95,665.59997559,37.64706039,37.64706039,212,733.2800293,762.08001709,7793.75,7761.85009766,3.0625,1.08749998,75.19999695,71.59999847,95,1635.75,11.40000057,116.59999847,504.46524048
08-Oct-2021 05:51:58.978,95,691.20001221,37.64706039,37.64706039,212,733.2800293,762.08001709,7793.75,7761.85009766,3.0625,1.08749998,75.19999695,71.59999847,95,1631.5,11.80000019,116.59999847,511.76470947
08-Oct-2021 05:51:59.978,95,691.20001221,32.94117737,32.54901886,210.19999695,731.84002686,768.73999023,7679.20019531,7750.25,2.8125,1.04218745,75.19999695,71.59999847,95,1620.25,11.80000019,116.59999847,532.62030029
08-Oct-2021 05:52:00.978,93.19999695,588.79998779,30.98039246,30.58823586,208.3999939,730.94000244,774.32000732,7521.14990234,7731.39990234,2.8125,1.19624996,75.19999695,71.59999847,93.19999695,1620.25,11.80000019,116.59999847,532.62030029
08-Oct-2021 05:52:01.978,93.19999695,716.79998779,30.98039246,30.58823586,208.3999939,730.94000244,774.32000732,7521.14990234,7731.39990234,2.8125,1.19624996,75.19999695,73.40000153,93.19999695,1610.75,11.80000019,116.59999847,516.97857666
08-Oct-2021 05:52:02.977,93.19999695,716.79998779,24.31372643,23.13725471,208.3999939,729.67999268,780.44000244,8028.64990234,8356.34960938,2.3125,1.70828128,75.19999695,73.40000153,93.19999695,1610,11.80000019,116.59999847,542.00531006
08-Oct-2021 05:52:03.978,93.19999695,947.20001221,21.96078491,21.56862831,208.3999939,730.40002441,785.29998779,8643.45019531,8643.45019531,2.25,2.30187511,75.19999695,73.40000153,93.19999695,1610,12.75,116.59999847,542.00531006
08-Oct-2021 05:52:04.978,93.19999695,1254.40002441,24.31372643,24.70588303,208.3999939,730.40002441,785.29998779,8643.45019531,8643.45019531,2.25,2.30187511,75.19999695,73.40000153,93.19999695,1604.75,14.90000057,116.59999847,559.81286621
08-Oct-2021 05:52:05.979,93.19999695,1254.40002441,24.31372643,24.70588303,208.3999939,732.20001221,789.79998779,8749.29980469,8701.45019531,2.375,2.59640622,75.19999695,73.40000153,93.19999695,1603.75,14.94999981,116.59999847,572.32617188
